User: anonymous   Login
Location: Azul
(36.7830°S, 59.8500°W)
Time: 09:36:26
(UTC-03:00)
Language:

SPROUT - Orbit

View from above orbital plane
View from above orbital plane
View from above satellite
View from above satellite

Ground track
Ground track

The orbit data is extracted from the following two-line orbital elements,

1 39770U 14029E   21295.11754106  .00001796  00000-0  19786-3 0  9993
2 39770  97.9246  46.3714 0009388 145.2988 214.8833 14.88775445402182
Epoch (UTC): 22 October 2021 02:49:15
Eccentricity: 0.0009388
inclination: 97.9246°
perigee height: 595 km
apogee height: 608 km
right ascension of ascending node: 46.3714°
argument of perigee: 145.2988°
revolutions per day: 14.88775445
mean anomaly at epoch: 214.8833°
orbit number at epoch: 40218

The dashed part of the orbit path shows where the satellite is in the earth's shadow,  

DLR